Regional Weather Roundup
Issued by NWS

Home | Current Version | Previous Version | Graphics & Text | Print | Product List | Glossary On
Versions: 1 2 3 4 5 6 7 8 9 10 11 12 13 14 15 16 17 18 19 20 21 22 23 24 25 26 27 28 29 30 31 32 33 34 35 36 37 38 39 40 41 42 43 44 45 46 47 48 49 50
000
ASUS43 KMPX 201410
RWRMN
WEATHER ROUNDUP FOR MINNESOTA
NATIONAL WEATHER SERVICE TWIN CITIES/CHANHASSEN MN
800 AM CST MON FEB 20 2017


NOTE: "FAIR" INDICATES FEW OR NO CLOUDS BELOW 12,000 FEET WITH NO
SIGNIFICANT WEATHER AND/OR OBSTRUCTIONS TO VISIBILITY. N/A MEANS
CURRENT SKY AND/OR WEATHER CONDITIONS ARE NOT AVAILABLE.

MNZ060>063-068>070-201500-
   Twin Cities Metro

CITY           SKY/WX    TMP DP  RH WIND       PRES   REMARKS
TWIN CITIES    CLOUDY    49  43  80 E7        29.81F
ST PAUL        CLOUDY    50  44  80 SE12      29.83S
CRYSTAL        MOCLDY    64  42  44 SE7       29.80S
BLAINE         CLOUDY    52  45  76 SE12      29.81S
LAKEVILLE      CLOUDY    48  46  93 SE9       29.80F
EDEN PRAIRIE   CLOUDY    49  43  80 E7        29.78F
SOUTH ST PAUL  CLOUDY    49  43  79 SE7       29.82F
LAKE ELMO      FAIR      52  45  76 SE10      29.85S
$$
MNZ001>005-007-008-013>017-022>024-027-028-201500-
   Northwest Minnesota

CITY           SKY/WX    TMP DP  RH WIND       PRES   REMARKS
BEMIDJI        CLOUDY    40  37  89 SE9       29.69F
HALLOCK        LGT RAIN  36  36 100 S5        29.61S
ROSEAU         CLOUDY    37  34  87 S7        29.65R
WARROAD        CLOUDY    39  37  93 CALM      29.64F
THIEF RVR FALL LGT RAIN  43  42  97 SE9       29.65R VSB 3/4
CROOKSTON      LGT RAIN  45  45 100 S16       29.63R
FOSSTON        LGT RAIN  43  43 100 SW14      29.69R
DETROIT LAKES  CLOUDY    43  41  93 SE9       29.69R FOG
MOORHEAD       CLOUDY    48  46  93 SE16      29.64F FOG
PARK RAPIDS    CLOUDY    45  40  82 SE6       29.71R
MAHNOMEN       LGT RAIN  46  44  95 S8        29.68R
$$
MNZ006-009>011-018-025>026-201500-
   North Central Minnesota

CITY           SKY/WX    TMP DP  RH WIND       PRES   REMARKS
BAUDETTE       LGT RAIN  40  37  89 SE13      29.69F
FLAG ISLAND    DRIZZLE   39  36  87 SE9G16    29.64F
INTL FALLS     CLOUDY    42  35  76 SE7       29.77R
WASKISH        CLOUDY    45  39  81 SE12G20   29.69F
BIG FORK       CLOUDY    43  36  75 S6        29.76R
LONGVILLE      CLOUDY    45  39  81 SE8       29.75S
GRAND RAPIDS   CLOUDY    42  36  79 SE15      29.79F
CRANE LAKE     CLOUDY    43  36  75 SE6       29.82F
ORR            CLOUDY    43  34  70 SE10      29.77S
COOK           CLOUDY    45  36  70 SE7G18    29.81S
WALKER         CLOUDY    43  39  85 SE6       29.72R
$$
MNZ012-019>021-037-201500-
   Northeast Minnesota

CITY           SKY/WX    TMP DP  RH WIND       PRES   REMARKS
DULUTH         CLOUDY    40  34  79 SE17      29.86S
ELY            CLOUDY    39  34  81 SE13      29.86S
HIBBING        CLOUDY    40  35  83 SE10      29.82S
EVELETH        CLOUDY    44  32  63 SE6       29.85S
DULUTH HARBOR  MOCLDY    36  34  93 CALM      29.91S
TWO HARBORS    CLOUDY    43  36  75 NE6       29.88F
GRAND MARAIS     N/A     40  31  70 NE12G22   30.00F
G MARAIS ARPRT CLOUDY    36  27  69 E9        29.97F
$$
MNZ029>031-032-039>041-046>048-054>057-064-201500-
   West Central Minnesota

CITY           SKY/WX    TMP DP  RH WIND       PRES   REMARKS
FERGUS FALLS   CLOUDY    48  48 100 S8        29.70R
WHEATON        CLOUDY    48  46  93 SE15      29.67R
MORRIS         CLOUDY    50  48  93 S15       29.68R FOG
ALEXANDRIA     CLOUDY    50  48  93 S13       29.68F
ELBOW LAKE     CLOUDY    48  47  97 SE13      29.67S FOG
WADENA         CLOUDY    45  45 100 SE6       29.69S FOG
GLENWOOD       CLOUDY    52  48  87 S20       29.69F
APPLETON       RAIN      52  48  87 S7        29.70R
BENSON         CLOUDY    55  46  71 S15       29.72R
ORTONVILLE     RAIN      48  46  93 SE6       29.67R
WILLMAR        FAIR      54  50  87 S15G22    29.74R
$$
MNZ033>034-036-042>043-049>051-058-059-201500-
   Central Minnesota

CITY           SKY/WX    TMP DP  RH WIND       PRES   REMARKS
ST CLOUD       CLOUDY    50  45  83 SE10      29.76S
SAUK CENTRE    FAIR      47  45  95 SE10      29.71F
PAYNESVILLE    CLOUDY    50  47  88 S7        29.73F
AITKIN         CLOUDY    46  37  71 SE9G16    29.76F
PINE RIVER     CLOUDY    45  39  81 SE9       29.77F
BRAINERD       CLOUDY    46  41  82 SE6       29.75F
STAPLES        CLOUDY    46  45  93 SE7       29.71F
LONG PRAIRIE   MOCLDY    46  45  93 E10       29.71F
LITTLE FALLS   CLOUDY    48  43  81 SE8       29.75S
LITCHFIELD     CLOUDY    52  46  82 S7        29.75S
BUFFALO        CLOUDY    51  45  78 SE9       29.78F
MAPLE LAKE     CLOUDY    49  46  86 SE7       29.78S
HUTCHINSON     MOCLDY    49  46  89 SE7       29.76F
$$
MNZ037-044-045-052-053-201500-
   East Central Minnesota

CITY           SKY/WX    TMP DP  RH WIND       PRES   REMARKS
PRINCETON      MOCLDY    52  45  76 SE9       29.79S
MORA           CLOUDY    45  39  81 SE5       29.84R
CAMBRIDGE      CLOUDY    54  43  66 SE6       29.79F
RUSH CITY      MOCLDY    50  41  71 SE12G17   29.83S
MOOSE LAKE     CLOUDY    34  32  93 NE6       29.84R WCI  29
HINCKLEY       FAIR      46  41  81 E5        29.84R
CLOQUET        CLOUDY    39  34  81 SE6       29.85S
MCGREGOR       CLOUDY    41  36  81 SE8       29.82S
$$
MNZ071>073-080-081-089-090-097-098-201500-
   Southwest Minnesota

CITY           SKY/WX    TMP DP  RH WIND       PRES   REMARKS
MONTEVIDEO     DRIZZLE   52  48  87 S10G16    29.71R
GRANITE FALLS  CLOUDY    51  48  90 SE16G22   29.71R
CANBY          LGT RAIN  58  55  88 SW13G25   29.69R
MARSHALL       CLOUDY    57  55  93 SW22G30   29.67R FOG
REDWOOD FALLS  MOCLDY    49  44  83 SE14      29.72S
OLIVIA         CLOUDY    50  45  81 SE13      29.73R
PIPESTONE      RAIN      54  50  87 S9        29.70S
WINDOM         CLOUDY    54  48  82 S14G21    29.74R
WORTHINGTON    LGT RAIN  52  50  93 S15       29.74R FOG
JACKSON        DRIZZLE   50  46  87 S14G22    29.76S
TRACY          RAIN      55  53  95 SW24      29.70F
SLAYTON        HVY RAIN  52  52  99 S17G23    29.73S
$$
MNZ065>067-074>077-082>085-091>093-201500-
   South Central Minnesota

CITY           SKY/WX    TMP DP  RH WIND       PRES   REMARKS
MANKATO          N/A     50  46  86 SE18      29.78F
NEW ULM        CLOUDY    50  45  81 SE12      29.75F
ST JAMES       CLOUDY    50  46  87 SE15      29.76S
FAIRMONT       LGT RAIN  51  48  89 S18G28    29.76F
GLENCOE        CLOUDY    50  48  91 SE7       29.76F
FARIBAULT      CLOUDY    52  46  82 SE13      29.81F
OWATONNA       CLOUDY    50  45  81 SE16G26   29.82F
WASECA         CLOUDY    50  45  81 SE15      29.82F
ALBERT LEA     CLOUDY    48  46  93 SE10      29.83F FOG
$$
MNZ078>079-086>088-094>096-201500-
   Southeast Minnesota

CITY           SKY/WX    TMP DP  RH WIND       PRES   REMARKS
ROCHESTER      CLOUDY    47  45  93 S15       29.89S FOG
RED WING       CLOUDY    52  45  76 SE9       29.87R
STANTON        CLOUDY    51  46  82 S15G22    29.81F
DODGE CENTER   CLOUDY    45  43  93 SE12      29.86F FOG
WINONA         MOCLDY    48  43  81 SE7       29.91F
AUSTIN         CLOUDY    48  45  87 SE10      29.86S FOG
PRESTON        CLOUDY    47  44  89 SE9       29.91R FOG
$$
ABBREVIATIONS USED IN REMARKS
   TC - TEMPERATURES IN CELSIUS
  WCI - WIND CHILL INDEX
   HX - HEAT INDEX
  VSB - VISIBILITY
$$




USA.gov is the U.S. government's official web portal to all federal, state and local government web resources and services.